Location: Rocktram
(38.2574°N, 122.2805°W)
Time: 00:44:47
(UTC+00:00)

Cosmos 1943 Rocket - Pass Details

Date: 30 March 2020
Orbit: 811 x 844 km, 71.0° (Epoch: 27 May)

Event Time Altitude Azimuth Distance (km) Brightness Sun altitude
Rises 03:00:00 0° 356° (N) 3,349 5.5 -6.6°
Reaches altitude 10° 03:04:24 10° 29° (NNE) 2,419 4.4 -7.5°
Maximum altitude 03:06:13 12° 48° (NE) 2,313 4.1 -7.8°
Drops below altitude 10° 03:08:02 10° 68° (ENE) 2,422 4.1 -8.2°
Enters shadow 03:09:14 - 79° (E) 2,601 4.2 -8.4°
